Regional Weather Roundup
Issued by NWS

Home | Current Version | Previous Version | Text Only | Print | Product List | Glossary Off
Versions: 1 2 3 4 5 6 7 8 9 10 11 12 13 14 15 16 17 18 19 20 21 22 23 24 25 26 27 28 29 30 31 32 33 34 35 36 37 38 39 40 41 42 43 44 45 46 47 48 49 50

000
ASUS43 KIND 242309
RWRIN

WEATHER ROUNDUP FOR INDIANA
NATIONAL WEATHER SERVICE INDIANAPOLIS IN
700 PM EDT SUN MAY 24 2015

NOTE: "FAIR" INDICATES FEW OR NO CLOUDS BELOW 12,000 FEET WITH NO
SIGNIFICANT WEATHER AND/OR OBSTRUCTIONS TO VISIBILITY.

* - STATION DOES NOT REPORT WEATHER SUCH AS PRECIPITATION OR FOG.

+ - STATION NOT QUALITY CONTROLLED BY THE NATIONAL WEATHER SERVICE.
    USE DATA WITH CAUTION...ESPECIALLY DEWPOINT AND RELATIVE
    HUMIDITY OBSERVATIONS.

INZ001>003-010>013-019-020-250000-
NORTHWEST INDIANA

CITY           SKY/WX    TMP DP  RH WIND       PRES   REMARKS
GARY /AIRPORT/ CLOUDY    72  66  83 CALM      29.97F
KNOX *+        PTSUNNY   82  54  36 S15       29.98F
LA PORTE +     PTSUNNY   83  55  38 S16G23    29.99F
MICHIGAN CITY+ CLOUDY    81  54  39 S8        29.98F
MONTICELLO +   MOSUNNY   81  60  48 S14G22    30.00F
RENSSELAER +   PTSUNNY   82  59  44 S22G30    29.99S
VALPARAISO     PTSUNNY   82  57  42 S15G25    29.98F

$$

LMZ046-743>745-250000-
SOUTHERN LAKE MICHIGAN

STATION/POSITION TIME  TEMP    WIND        PRES    WAVE
                       AIR SEA DIR/SP/G            HT
                 (UTC) (F)     (DEG/KT/KT) (MB)    (FT)
BURNS HARBOR     2300   74     180/  6/ 12 1015.2S
MICHIGAN CITY    2300          180/  5/  8   N/A
5NW MICH CITY    2300   64 55   10/  4/  6   N/A     1

$$

INZ004-005-014>016-021>024-250000-
NORTH CENTRAL INDIANA

CITY           SKY/WX    TMP DP  RH WIND       PRES   REMARKS
GOSHEN         CLOUDY    80  55  42 S13       30.02F
LOGANSPORT +   MOSUNNY   81  45  28 S18       30.03F
PERU/GRISSOM   MOSUNNY   82  55  39 S18G24    30.02F
ROCHESTER +    MOSUNNY   82  54  36 S15G22    30.02F
SOUTH BEND     PTSUNNY   82  54  37 S15G25    30.00F
WARSAW +       MOSUNNY   81  54  39 S7        30.04F

$$

INZ006>009-017-018-025>027-250000-
NORTHEAST INDIANA

CITY           SKY/WX    TMP DP  RH WIND       PRES   REMARKS
ANGOLA *+      PTSUNNY   81  57  44 S8        30.06F
AUBURN +       PTSUNNY   81  50  34 S7        30.07F
FORT WAYNE     PTSUNNY   80  52  37 S17G25    30.07F
HUNTINGTON +   PTSUNNY   80  53  38 S10G16    30.05F

$$

INZ028-029-035-036-043>045-051>053-250000-
WEST CENTRAL INDIANA

CITY           SKY/WX    TMP DP  RH WIND       PRES   REMARKS
CRAWFORDSVL +  MOSUNNY   80  52  37 S15G21    30.03F
GREENCASTLE +  PTSUNNY   79  55  44 S15G22    30.05F
LAFAYETTE      MOSUNNY   81  59  47 S17G24    29.99F
TERRE HAUTE    MOSUNNY   81  61  50 S15G28    30.01F

$$

INZ030>032-037>040-046>048-054>057-064-065-250000-
CENTRAL INDIANA

CITY           SKY/WX    TMP DP  RH WIND       PRES   REMARKS
CP ATTERBURY + MOSUNNY   81  57  44 S13G21    30.08S
COLUMBUS       MOSUNNY   81  50  34 S17G23    30.07F
FISHERS *+     SUNNY     79  59  50 S16G23    30.06
FRANKFORT +    MOSUNNY   83  57  40 SE10G21   30.05F
GREENWOOD *+   PTSUNNY   82  50  32 S14       30.07F
INDIANAPOLIS   PTSUNNY   81  56  42 S18G26    30.04F
-EAGLE CREEK   MOSUNNY   81  57  43 S10G20    30.04F
KOKOMO *+      MOSUNNY   81  55  41 S17       30.03F
MARION +       MOSUNNY   81  49  32 S14G21    30.06F
MT COMFORT *+  SUNNY     82  34  17 S14G23    30.07F
SHELBYVILLE    SUNNY     84  55  36 S16       30.06F
ZIONSVILLE +   MOSUNNY   82  51  34 S14       30.06F

$$

INZ033-034-041-042-049-050-058-059-250000-
EAST CENTRAL INDIANA

CITY           SKY/WX    TMP DP  RH WIND       PRES   REMARKS
MUNCIE         SUNNY     83  51  33 S17G23    30.07F

$$

INZ060-061-067>069-081>083-085>088-250000-
SOUTHWEST INDIANA

CITY           SKY/WX    TMP DP  RH WIND       PRES   REMARKS
EVANSVILLE     MOSUNNY   83  63  50 S12       30.03F
HUNTINGBURG *+ PTSUNNY   81  61  50 S12G18    30.05F
WASHINGTON +   CLOUDY    82  56  41 S12       30.03F

$$

INZ062-063-066-070>080-084-089>092-250000-
SOUTH CENTRAL AND SOUTHEAST INDIANA

CITY           SKY/WX    TMP DP  RH WIND       PRES   REMARKS
BLOOMINGTON    MOSUNNY   81  61  50 S15G22    30.06F
MADISON *+     SUNNY     82  48  30 SE10G17   30.12F
NORTH VERNON + SUNNY     82  54  36 S14       30.10F
SEYMOUR +      MOSUNNY   84  57  39 S12       30.07F

$$




USA.gov is the U.S. government's official web portal to all federal, state and local government web resources and services.